Saranac Lake, NY

10:58 PM EST on December 15, 2017 (GMT -0500)
Adirondack Regional

Weather History for KSLK - November, 2014

Change the Weather History Date:

Friday, November 28, 2014

  Actual Average Record
Temperature  
Mean Temperature 13 °F 27 °F  
Max Temperature 22 °F 36 °F 67 °F (1990)
Min Temperature 3 °F 17 °F -9 °F (1951)
Degree Days  
Heating Degree Days 52 38  
Month to date heating degree days 881 904  
Since 1 July heating degree days 2084 2196  
Cooling Degree Days 0 0  
Month to date cooling degree days 0 0  
Year to date cooling degree days 83 114  
Moisture  
Dew Point 13 °F    
Average Humidity 78    
Maximum Humidity 88    
Minimum Humidity 67    
Precipitation  
Precipitation 0.02 in 0.10 in 1.19 in (1993)
Month to date precipitation 1.99 3.13  
Year to date precipitation 33.18 35.01  
Sea Level Pressure  
Sea Level Pressure 30.04 in    
Wind  
Wind Speed 5 mph (WSW)    
Max Wind Speed 14 mph    
Max Gust Speed 28 mph    
Visibility 5 miles    
Events Fog , Snow    
T = Trace of Precipitation, MM = Missing Value Source: NWS Daily Summary

Daily Weather History Graph

Daily Weather History Graph

Search for Another Location

Airport or City:

Trip Planner

Search our weather history database for the weather conditions in past years. The results will help you decide how hot, cold, wet, or windy it might be!

Date:

Astronomy

Nov. 28, 2014 Rise Set
Actual Time 7:09 AM EST 4:20 PM EST
Civil Twilight 6:36 AM EST 4:52 PM EST
Nautical Twilight 6:00 AM EST 5:28 PM EST
Astronomical Twilight 5:25 AM EST 6:03 PM EST
Moon 11:53 AM EST (11/28) 11:14 PM EST (11/28)
Length of Visible Light 10h 15m
Length of Day
9h 10m
Waxing Crescent, 42% of the Moon is Illuminated
Nov 28
Waxing Crescent
Nov 29
First Quarter
Dec 6
Full
Dec 14
Last Quarter
Dec 21
New

Hourly Weather History & Observations

Time (EST) Temp. Windchill Dew Point Humidity Pressure Visibility Wind Dir Wind Speed Gust Speed Precip Events Conditions
12:22 AM 21.9 °F - - N/A% 29.93 in 3.0 mi Calm Calm - 0.00 in Snow Light Snow
12:32 AM 21.9 °F - - N/A% 29.93 in 1.8 mi Calm Calm - 0.01 in Snow Light Snow
12:51 AM 21.9 °F - - N/A% 30.00 in 1.8 mi Calm Calm - 0.01 in Snow Light Snow
1:23 AM 21.9 °F - 19.0 °F 89% 29.93 in 2.0 mi Calm Calm - 0.00 in Snow Light Snow
1:36 AM 21.9 °F - 19.0 °F 89% 29.93 in 2.5 mi Calm Calm - 0.00 in Snow Light Snow
1:44 AM 21.0 °F - 19.0 °F 92% 29.93 in 4.0 mi Calm Calm - 0.00 in Snow Light Snow
1:51 AM 21.0 °F - 18.0 °F 88% 30.01 in 3.0 mi Calm Calm - 0.00 in Snow Light Snow
2:02 AM 21.0 °F - 18.0 °F 88% 29.94 in 4.0 mi Calm Calm - 0.00 in Snow Light Snow
2:17 AM 21.0 °F - 18.0 °F 88% 29.94 in 2.0 mi Calm Calm - 0.01 in Snow Light Snow
2:32 AM 21.0 °F 14.6 °F 18.0 °F 88% 29.94 in 4.0 mi Variable 4.6 mph - 0.01 in Snow Light Snow
2:43 AM 21.0 °F 12.4 °F - N/A% 29.94 in 5.0 mi NW 6.9 mph - 0.01 in Snow Light Snow
2:51 AM 19.9 °F 13.4 °F - N/A% 30.02 in 6.0 mi NW 4.6 mph - 0.01 in Snow Light Snow
3:51 AM 19.9 °F 13.4 °F 14.0 °F 78% 30.03 in 10.0 mi West 4.6 mph - 0.00 in   Overcast
4:33 AM 19.0 °F 11.1 °F 14.0 °F 81% 29.96 in 7.0 mi Variable 5.8 mph - 0.00 in Snow Light Snow
4:51 AM 19.0 °F 10.0 °F 14.0 °F 81% 30.05 in 5.0 mi WNW 6.9 mph - 0.00 in Snow Light Snow
5:51 AM 18.0 °F 11.1 °F 12.0 °F 78% 30.07 in 9.0 mi Variable 4.6 mph - 0.00 in   Overcast
6:15 AM 18.0 °F - 10.9 °F 74% 29.99 in - North - - N/A   Unknown
6:51 AM 17.1 °F 7.6 °F 12.0 °F 81% 30.08 in 10.0 mi WSW 6.9 mph - N/A   Unknown
6:59 AM 17.1 °F 8.7 °F 12.0 °F 81% 30.00 in 10.0 mi WSW 5.8 mph - N/A   Overcast
7:30 AM 16.0 °F 5.3 °F 12.0 °F 84% 30.00 in 10.0 mi WSW 8.1 mph 16.1 mph N/A   Scattered Clouds
7:42 AM 16.0 °F 4.4 °F - N/A% 30.00 in 10.0 mi WSW 9.2 mph - N/A   Mostly Cloudy
7:51 AM 16.0 °F 4.4 °F - N/A% 30.09 in 10.0 mi West 9.2 mph - N/A   Mostly Cloudy
8:20 AM 16.0 °F - - N/A% 30.01 in 10.0 mi North - - N/A   Partly Cloudy
8:51 AM 16.0 °F 5.3 °F - N/A% 30.11 in 10.0 mi West 8.1 mph - N/A   Partly Cloudy
9:21 AM 17.1 °F 6.6 °F 12.0 °F 81% 30.02 in 10.0 mi WSW 8.1 mph - N/A   Mostly Cloudy
9:34 AM 17.1 °F 7.6 °F 12.0 °F 81% 30.03 in 2.5 mi Variable 6.9 mph - 0.00 in Snow Light Snow
9:41 AM 17.1 °F 5.8 °F 12.0 °F 81% 30.03 in 3.0 mi WSW 9.2 mph - 0.00 in Snow Light Snow
9:51 AM 18.0 °F 8.7 °F 12.9 °F 81% 30.11 in 5.0 mi WSW 6.9 mph - 0.00 in   Haze
10:51 AM 19.0 °F 8.2 °F 12.0 °F 74% 30.11 in 5.0 mi WSW 9.2 mph - 0.00 in Snow Light Snow
11:04 AM 19.0 °F 7.5 °F 12.0 °F 74% 30.02 in 2.5 mi WSW 10.4 mph 18.4 mph 0.00 in Snow Light Snow
11:18 AM 18.0 °F 8.7 °F 10.9 °F 74% 30.02 in 4.0 mi West 6.9 mph - 0.00 in Snow Light Snow
11:51 AM 19.0 °F 6.8 °F 10.9 °F 71% 30.09 in 2.5 mi WSW 11.5 mph 17.3 mph 0.00 in Snow Light Snow
12:06 PM 19.0 °F 7.5 °F 12.9 °F 77% 30.01 in 1.2 mi WSW 10.4 mph - 0.00 in Snow Light Snow
12:25 PM 19.0 °F 11.1 °F 12.9 °F 77% 30.00 in 2.0 mi West 5.8 mph - 0.00 in Snow Light Snow
12:39 PM 19.0 °F 8.2 °F 10.9 °F 71% 30.00 in 7.0 mi WSW 9.2 mph - 0.00 in   Overcast
12:51 PM 18.0 °F 7.7 °F 10.9 °F 74% 30.09 in 10.0 mi WSW 8.1 mph 17.3 mph 0.00 in   Overcast
1:14 PM 19.9 °F 10.1 °F 12.0 °F 71% 30.00 in 2.5 mi West 8.1 mph 19.6 mph 0.00 in Snow Light Snow
1:18 PM 21.0 °F 12.4 °F 14.0 °F 74% 30.00 in 0.8 mi Variable 6.9 mph - 0.00 in Snow Light Snow
1:28 PM 19.9 °F - 12.9 °F 74% 30.00 in 1.0 mi Calm Calm - 0.00 in Snow Light Snow
1:31 PM 19.9 °F 12.1 °F 12.9 °F 74% 30.00 in 3.0 mi Variable 5.8 mph - 0.00 in Snow Light Snow
1:51 PM 19.0 °F - 10.9 °F 71% 30.09 in 6.0 mi North - - 0.00 in Snow Light Snow
2:26 PM 19.0 °F 11.1 °F 12.9 °F 77% 30.01 in 2.5 mi Variable 5.8 mph - 0.00 in Snow Light Snow
2:35 PM 19.9 °F 13.4 °F 14.0 °F 78% 30.01 in 1.8 mi West 4.6 mph - 0.00 in Snow Light Snow
2:39 PM 19.9 °F 11.1 °F 12.9 °F 74% 30.01 in 3.0 mi Variable 6.9 mph - 0.00 in Snow Light Snow
2:51 PM 19.9 °F 10.1 °F 12.0 °F 71% 30.09 in 10.0 mi West 8.1 mph 17.3 mph 0.00 in   Overcast
3:11 PM 19.9 °F 11.1 °F 12.0 °F 71% 30.02 in 4.0 mi NW 6.9 mph - 0.00 in Snow Light Snow
3:15 PM 19.9 °F 11.1 °F 12.9 °F 74% 30.02 in 1.8 mi Variable 6.9 mph - 0.00 in Snow Light Snow
3:20 PM 19.0 °F 12.3 °F 12.0 °F 74% 30.02 in 2.0 mi Variable 4.6 mph - 0.00 in Snow Light Snow
3:25 PM 19.0 °F 12.3 °F 12.0 °F 74% 30.02 in 8.0 mi West 4.6 mph - 0.00 in   Overcast
3:49 PM 19.4 °F 12.8 °F 12.2 °F 74% 30.03 in 2.5 mi WSW 4.6 mph - 0.00 in Snow Light Snow
3:51 PM 19.0 °F 13.9 °F 12.9 °F 77% 30.12 in 2.5 mi Variable 3.5 mph - 0.00 in Snow Light Snow
3:59 PM 19.0 °F 12.3 °F 12.0 °F 74% 30.03 in 3.0 mi Variable 4.6 mph - 0.00 in Snow Light Snow
4:04 PM 19.0 °F 11.1 °F 12.0 °F 74% 30.04 in 1.8 mi West 5.8 mph - 0.00 in Snow Light Snow
4:31 PM 18.0 °F 11.1 °F 14.0 °F 84% 30.04 in 0.5 mi WSW 4.6 mph - 0.00 in Fog , Snow Snow
4:43 PM 18.0 °F 12.7 °F 14.0 °F 84% 30.04 in 1.8 mi West 3.5 mph - 0.00 in Snow Light Snow
4:51 PM 18.0 °F - 14.0 °F 84% 30.13 in 1.2 mi Calm Calm - 0.00 in Snow Light Snow
5:11 PM 18.0 °F 9.8 °F 14.0 °F 84% 30.05 in 2.0 mi Variable 5.8 mph - 0.00 in Snow Light Snow
5:22 PM 18.0 °F 9.8 °F 12.0 °F 78% 30.06 in 7.0 mi WSW 5.8 mph - 0.00 in Snow Light Snow
5:44 PM 16.0 °F 10.4 °F 10.9 °F 81% 30.06 in 10.0 mi WSW 3.5 mph - 0.00 in   Mostly Cloudy
5:51 PM 16.0 °F 8.8 °F 10.9 °F 81% 30.16 in 10.0 mi WSW 4.6 mph - 0.00 in   Mostly Cloudy
6:03 PM 16.0 °F - 10.9 °F 81% 30.07 in 10.0 mi Calm Calm - N/A   Mostly Cloudy
6:51 PM 14.0 °F - 10.0 °F 84% 30.17 in 10.0 mi Calm Calm - N/A   Mostly Cloudy
7:37 PM 14.0 °F 6.5 °F - N/A% 30.07 in 10.0 mi WSW 4.6 mph - N/A   Partly Cloudy
7:51 PM 12.0 °F 2.7 °F - N/A% 30.17 in 10.0 mi SW 5.8 mph - N/A   Partly Cloudy
8:51 PM 6.1 °F -2.8 °F - N/A% 30.18 in 7.0 mi SSW 4.6 mph - N/A   Clear
9:51 PM 3.9 °F -5.3 °F - N/A% 30.19 in 10.0 mi SW 4.6 mph - N/A   Overcast
10:51 PM 9.0 °F 2.4 °F - N/A% 30.19 in 10.0 mi SSW 3.5 mph - N/A   Overcast
11:51 PM 3.9 °F -3.4 °F - N/A% 30.18 in 10.0 mi SW 3.5 mph - N/A   Scattered Clouds